STARLINK-34609, 64768

Orbit data source: Space-Track

STARLINK-34609, 64768 is a payload satellite owned by SpaceX/Seattle (US) in LEO that was launched on Tue, 08 Jul 2025 UTC via an FALCON 9 launch vehicle from the Air Force Eastern Test Range (AFETR). Payload-class satellites include a variety of spacecraft equipped with specific instruments for various scientific and technological missions. These include communications satellites like Starlink; space stations such as the ISS; scientific satellites like the Hubble; Earth observation satellites from companies like Planet Labs, Umbra, and HawkEye 360; GPS; miniature CubeSats for education and research; and military/defense satellites.

Loading next visibility...
Identifier
64768, 2025-147P
Orbit
LEO
Country
Flag of USUS
Related business
Manufacturer
SpaceX/Seattle
Mission
Operational spacecraft
Bus & Motor
STARLINK V2MO, Unknown motor
Mass
575 kg wet, ~530 kg dry
Launch date (UTC)
2025-07-08 (2 months ago)
Launch vehicle
FALCON 9
Launch site
Air Force Eastern Test Range (AFETR)
Object type
Payload
Rocket body
Debris
Shape & HBR
Unknown
Radar Cross Section
Large (>1 m²)

Expand to show TLE details & history
Last TLE update: 9 hours ago

TLE from 9 hours ago
0 STARLINK-34609
1 64768U 25147P   25242.77500260  .00073536  00000-0  16594-2 0  9993
2 64768  53.1614  50.1120 0001673  18.9251 341.1817 15.42584135  9513
Epoch: 2025-08-30T18:36Z
TLE epoch observation values (Epoch: 2025-08-30T18:36:00.224Z)
Latitude
-0.00004°
Longitude
151.90658°
Altitude
438.311 km
Speed
7.651 km/s
True Right ascension
03h 20m 26s
True Declination
0° 00' 00"
Sunlit
Object was in daylight at epoch
Visualization orbit readout
Latitude
Unknown
Longitude
Unknown
Altitude
Unknown
Speed
Unknown
Apparent Right ascension
Unknown
Apparent Declination
Unknown
Sunlit
N/A
Visualization observer readout
Local Sidereal Time
19:26:18
Azimuth
Unknown
Elevation
Unknown
Doppler factor
Unknown
Orbital elements
Apogee altitude
439.884 km
Perigee altitude
437.603 km
Semi-major axis
6,816.88 km
Eccentricity
0.00017
Inclination
53.1614°
RAAN
50.112°
Arg. of periapsis
18.9251°
True anomaly
341.17551°
Mean anomaly
341.1817°
Eccentric anomaly
341.17861°
Mean motion
3.85625 °/min
Orbital period
93.36 mins
BSTAR
0.0016594
Loading maneuver chart data...
Computing Atmospheric mass density...
Loading historical data...
Loading historical data...
Loading historical data...
Loading historical data...
Loading historical data...
Loading historical data...
Loading historical data...

Documentation

Showing up to 5 results
|